User: anonymous   Login
Location: B?jaj?g
(11.7167°N, 92.6667°E)
Time: 17:05:57
(UTC+00:00)
Language:

IUS-13 SRM-1 - Orbit

View from above orbital plane
View from above orbital plane
View from above satellite
View from above satellite

Ground track
Ground track

The orbit data is extracted from the following two-line orbital elements,

1 22315U 93003C   20333.90911586  .00005890  00000-0  78500-3 0  9993
2 22315  26.8621 242.4432 6305507 196.9738 124.7052  3.61402027304496
Epoch (UTC): 28 November 2020 21:49:07
Eccentricity: 0.6305507
inclination: 26.8621°
perigee height: 248 km
apogee height: 22868 km
right ascension of ascending node: 242.4432°
argument of perigee: 196.9738°
revolutions per day: 3.61402027
mean anomaly at epoch: 124.7052°
orbit number at epoch: 30449

The dashed part of the orbit path shows where the satellite is in the earth's shadow,  

DLR